COSMOS 2428

Last updated on Sat Aug 15 2026 00:02:08 GMT+0000 (Coordinated Universal Time)

1 31792U 07029A 26226.40831799 .00000350 00000+0 21317-3 0 9993 2 31792 70.9385 232.2400 0008229 21.8271 338.3199 14.12959961986377
UTC large
Height (km)
Speed (km/s)
/
Latitude / Longitude
Inclination (degrees)
Orbital Period (minutes)
Azimuth
Elevation
Range (km)
Doppler Factor

Next 0 passes for location: London (51.5072 / 0.1276)

No passes found over London.
COSMOS 2428